| time (UTC) | temp F | wind direction | speed MPH | gust MPH | rain 1hr in | rain 24hr in | rain mn in | humidity % | barometer mb |
| 20260504214003 | 76 | 225 | 8.0 | 12.0 | 0.00 | 0.00 | 0.00 | 28 | 998.0 |
| 20260504213003 | 77 | 262 | 8.0 | 11.0 | 0.00 | 0.00 | 0.00 | 25 | 997.8 |
| 20260504212003 | 79 | 229 | 8.0 | 12.0 | 0.00 | 0.00 | 0.00 | 25 | 997.5 |
| 20260504211003 | 77 | 235 | 9.0 | 15.0 | 0.00 | 0.00 | 0.00 | 27 | 996.9 |
| 20260504210003 | 78 | 315 | 12.0 | 15.0 | 0.00 | 0.00 | 0.00 | 26 | 996.6 |
| 20260504205003 | 79 | 230 | 8.0 | 15.0 | 0.00 | 0.00 | 0.00 | 24 | 996.1 |
| 20260504204002 | 77 | 250 | 9.0 | 11.0 | 0.00 | 0.00 | 0.00 | 25 | 995.5 |
| 20260504203003 | 78 | 270 | 10.0 | 14.0 | 0.00 | 0.00 | 0.00 | 22 | 995.2 |
| 20260504202002 | 78 | 235 | 10.0 | 15.0 | 0.00 | 0.00 | 0.00 | 24 | 994.5 |
| 20260504201003 | 76 | 277 | 10.0 | 15.0 | 0.00 | 0.00 | 0.00 | 23 | 994.0 |
| 20260504200002 | 79 | 292 | 10.0 | 19.0 | 0.00 | 0.00 | 0.00 | 21 | 1002.9 |
| 20260504195003 | 79 | 314 | 11.0 | 18.0 | 0.00 | 0.00 | 0.00 | 20 | 1002.3 |
| 20260504194003 | 77 | 314 | 9.0 | 15.0 | 0.00 | 0.00 | 0.00 | 20 | 1001.7 |
| 20260504193003 | 77 | 288 | 11.0 | 14.0 | 0.00 | 0.00 | 0.00 | 20 | 1001.3 |
| 20260504192003 | 78 | 284 | 9.0 | 13.0 | 0.00 | 0.00 | 0.00 | 20 | 1000.8 |
| 20260504191004 | 78 | 303 | 9.0 | 14.0 | 0.00 | 0.00 | 0.00 | 20 | 1000.3 |
| 20260504190003 | 77 | 314 | 9.0 | 16.0 | 0.00 | 0.00 | 0.00 | 21 | 1000.1 |
| 20260504185002 | 76 | 307 | 12.0 | 17.0 | 0.00 | 0.00 | 0.00 | 18 | 999.7 |
| 20260504184003 | 76 | 314 | 9.0 | 15.0 | 0.00 | 0.00 | 0.00 | 19 | 999.5 |
| 20260504183003 | 76 | 314 | 11.0 | 14.0 | 0.00 | 0.00 | 0.00 | 20 | 999.1 |
| 20260504182002 | 76 | 314 | 7.0 | 8.0 | 0.00 | 0.00 | 0.00 | 21 | 998.9 |
| 20260504181003 | 75 | 323 | 12.0 | 17.0 | 0.00 | 0.00 | 0.00 | 20 | 998.5 |
| 20260504180003 | 75 | 351 | 11.0 | 16.0 | 0.00 | 0.00 | 0.00 | 18 | 998.2 |
| 20260504175003 | 76 | 1 | 8.0 | 13.0 | 0.00 | 0.00 | 0.00 | 20 | 998.0 |
| 20260504174003 | 75 | 351 | 12.0 | 17.0 | 0.00 | 0.00 | 0.00 | 17 | 997.8 |
| 20260504173003 | 75 | 250 | 9.0 | 19.0 | 0.00 | 0.00 | 0.00 | 21 | 997.6 |
| 20260504172004 | 74 | 352 | 11.0 | 15.0 | 0.00 | 0.00 | 0.00 | 19 | 997.4 |
| 20260504171004 | 74 | 254 | 11.0 | 15.0 | 0.00 | 0.00 | 0.00 | 20 | 997.1 |
| 20260504151002 | 68 | 348 | 7.0 | 11.0 | 0.00 | 0.00 | 0.00 | 33 | 995.1 |
| 20260504082004 | 48 | 314 | 3.0 | 5.0 | 0.00 | 0.00 | 0.00 | 62 | 994.5 |
| 20260504081003 | 48 | 314 | 2.0 | 4.0 | 0.00 | 0.00 | 0.00 | 62 | 994.6 |
| 20260504045002 | 47 | 314 | 3.0 | 4.0 | 0.00 | 0.00 | 0.00 | 58 | 996.9 |
| 20260504043002 | 49 | 314 | 4.0 | 10.0 | 0.00 | 0.00 | 0.00 | 55 | 997.2 |
| 20260504042003 | 49 | 314 | 4.0 | 7.0 | 0.00 | 0.00 | 0.00 | 55 | 997.1 |
| 20260504041002 | 49 | 314 | 3.0 | 4.0 | 0.00 | 0.00 | 0.00 | 54 | 997.3 |
| 20260504040003 | 49 | 314 | 5.0 | 8.0 | 0.00 | 0.00 | 0.00 | 54 | 997.3 |
| 20260504035002 | 49 | 314 | 3.0 | 5.0 | 0.00 | 0.00 | 0.00 | 54 | 997.5 |
| 20260504033002 | 49 | 314 | 4.0 | 10.0 | 0.00 | 0.00 | 0.00 | 54 | 997.6 |
| 20260504031002 | 49 | 314 | 3.0 | 9.0 | 0.00 | 0.00 | 0.00 | 54 | 997.5 |
| 20260504030002 | 49 | 314 | 4.0 | 9.0 | 0.00 | 0.00 | 0.00 | 55 | 997.5 |
| 20260504025003 | 49 | 314 | 5.0 | 9.0 | 0.00 | 0.00 | 0.00 | 55 | 997.5 |
| 20260504024002 | 48 | 314 | 4.0 | 9.0 | 0.00 | 0.00 | 0.00 | 56 | 997.4 |
| 20260504023003 | 48 | 314 | 4.0 | 9.0 | 0.00 | 0.00 | 0.00 | 55 | 997.1 |
| 20260504022002 | 49 | 314 | 3.0 | 4.0 | 0.00 | 0.00 | 0.00 | 55 | 997.4 |
| 20260504020003 | 49 | 314 | 3.0 | 4.0 | 0.00 | 0.00 | 0.00 | 55 | 997.9 |
| 20260504015003 | 49 | 314 | 3.0 | 8.0 | 0.00 | 0.00 | 0.00 | 54 | 998.1 |
| 20260504014002 | 49 | 314 | 4.0 | 7.0 | 0.00 | 0.00 | 0.00 | 54 | 999.3 |
| 20260504013003 | 49 | 314 | 3.0 | 5.0 | 0.00 | 0.00 | 0.00 | 54 | 1000.6 |
| 20260504005002 | 51 | 314 | 3.0 | 5.0 | 0.00 | 0.00 | 0.00 | 51 | 1001.4 |
| 20260504004002 | 51 | 314 | 4.0 | 12.0 | 0.00 | 0.00 | 0.00 | 50 | 1001.6 |
| 20260504003003 | 51 | 314 | 4.0 | 5.0 | 0.00 | 0.00 | 0.00 | 50 | 1001.8 |
| 20260504002002 | 52 | 314 | 4.0 | 8.0 | 0.00 | 0.00 | 0.00 | 47 | 1001.9 |
| 20260503235003 | 52 | 314 | 6.0 | 11.0 | 0.00 | 0.00 | 0.00 | 47 | 1002.3 |
| 20260503234002 | 53 | 314 | 7.0 | 13.0 | 0.00 | 0.00 | 0.00 | 47 | 1002.5 |
| 20260503233003 | 53 | 316 | 7.0 | 10.0 | 0.00 | 0.00 | 0.00 | 46 | 1002.7 |
| 20260503232003 | 53 | 330 | 7.0 | 11.0 | 0.00 | 0.00 | 0.00 | 45 | 1002.8 |
| 20260503231003 | 53 | 314 | 9.0 | 12.0 | 0.00 | 0.00 | 0.00 | 44 | 1002.9 |
| 20260503230003 | 54 | 314 | 9.0 | 14.0 | 0.00 | 0.00 | 0.00 | 42 | 1003.2 |
| 20260503225003 | 54 | 314 | 8.0 | 14.0 | 0.00 | 0.00 | 0.00 | 41 | 1003.3 |
| 20260503224003 | 55 | 314 | 10.0 | 17.0 | 0.00 | 0.00 | 0.00 | 40 | 1003.7 |
| 20260503223002 | 56 | 314 | 10.0 | 19.0 | 0.00 | 0.00 | 0.00 | 39 | 1004.0 |
| 20260503222003 | 57 | 313 | 11.0 | 13.0 | 0.00 | 0.00 | 0.00 | 38 | 1004.3 |
| 20260503221003 | 58 | 314 | 12.0 | 18.0 | 0.00 | 0.00 | 0.00 | 34 | 1004.8 |
| 20260503220003 | 59 | 264 | 10.0 | 22.0 | 0.00 | 0.00 | 0.00 | 33 | 1005.1 |